GW4712 Weather Reports


time (UTC)temp
C
wind
direction
speed
KPH
gust
KPH
rain 1hr
cm
rain 24hr
cm
rain mn
cm
humidity
%
barometer
mb
20260902163825 31 245 0.0 0.0 0.00 0.00 0.00 74 1020.4
20260902163325 31 290 0.0 0.0 0.00 0.00 0.00 70 1020.2
20260902162824 31 248 0.0 0.0 0.00 0.00 0.00 71 1020.2
20260902162319 31 240 0.0 0.0 0.00 0.00 0.00 70 1020.6
20260902161814 30 300 0.0 1.6 0.00 0.00 0.00 72 1020.5
20260902161310 30 291 0.0 0.0 0.00 0.00 0.00 75 1020.4
20260902160805 30 231 0.0 0.0 0.00 0.00 0.00 71 1020.6
20260902160301 30 303 1.6 3.2 0.00 0.00 0.00 72 1020.4
20260902155758 30 283 0.0 1.6 0.00 0.00 0.00 74 1020.6
20260902155257 30 274 0.0 0.0 0.00 0.00 0.00 75 1020.5
20260902154753 30 240 0.0 0.0 0.00 0.00 0.00 76 1020.6
20260902154249 30 186 0.0 0.0 0.00 0.00 0.00 77 1020.7
20260902153747 30 236 0.0 0.0 0.00 0.00 0.00 75 1020.8
20260902153241 30 215 0.0 0.0 0.00 0.00 0.00 77 1020.8
20260902152732 29 164 0.0 0.0 0.00 0.00 0.00 78 1020.7
20260902152227 29 182 0.0 0.0 0.00 0.00 0.00 78 1020.5
20260902151722 29 195 0.0 0.0 0.00 0.00 0.00 78 1020.7
20260902151217 29 239 0.0 0.0 0.00 0.00 0.00 79 1020.6
20260902150717 29 162 0.0 0.0 0.00 0.00 0.00 78 1020.6
20260902150214 29 170 0.0 0.0 0.00 0.00 0.00 79 1020.8
20260902145712 28 190 0.0 0.0 0.00 0.00 0.00 80 1020.8
20260902145213 28 228 0.0 0.0 0.00 0.00 0.00 82 1020.8
20260902144709 28 237 0.0 0.0 0.00 0.00 0.00 81 1020.9
20260902144204 28 238 0.0 0.0 0.00 0.00 0.00 81 1020.9
20260902143659 28 226 0.0 0.0 0.00 0.00 0.00 82 1020.8
20260902143154 27 176 0.0 0.0 0.00 0.00 0.00 83 1020.9
20260902142650 27 185 0.0 0.0 0.00 0.00 0.00 82 1020.7
20260902142146 27 177 0.0 0.0 0.00 0.00 0.00 82 1020.5
20260902141645 27 160 0.0 0.0 0.00 0.00 0.00 84 1020.5
20260902141141 27 164 0.0 0.0 0.00 0.00 0.00 85 1020.5
20260902140636 27 164 0.0 0.0 0.00 0.00 0.00 85 1020.5
20260902140131 26 160 0.0 0.0 0.00 0.00 0.00 86 1020.5
20260902135630 26 188 0.0 0.0 0.00 0.00 0.00 86 1020.3
20260902135126 26 244 0.0 0.0 0.00 0.00 0.00 86 1020.6
20260902134621 26 186 0.0 0.0 0.00 0.00 0.00 87 1020.4
20260902134116 26 214 0.0 0.0 0.00 0.00 0.00 88 1020.4
20260902133616 26 214 0.0 0.0 0.00 0.00 0.00 92 1020.4
20260902133111 25 214 0.0 0.0 0.00 0.00 0.00 92 1020.4
20260902132606 25 214 0.0 0.0 0.00 0.00 0.00 95 1020.1
20260902132102 25 214 0.0 0.0 0.00 0.00 0.00 97 1020.3
20260902131557 25 214 0.0 0.0 0.00 0.00 0.00 96 1020.4
20260902131051 24 214 0.0 0.0 0.00 0.00 0.00 98 1020.4
20260902130547 23 214 0.0 0.0 0.00 0.00 0.00 98 1020.3
20260902130042 23 214 0.0 0.0 0.00 0.00 0.00 99 1020.6
20260902125538 23 214 0.0 0.0 0.00 0.00 0.00 99 1020.3
20260902125033 22 214 0.0 0.0 0.00 0.00 0.00 99 1020.4
20260902124530 22 214 0.0 0.0 0.00 0.00 0.00 99 1020.1
20260902124024 22 214 0.0 0.0 0.00 0.00 0.00 99 1020.3
20260902123520 22 214 0.0 0.0 0.00 0.00 0.00 99 1020.2
20260902123020 21 215 0.0 0.0 0.00 0.00 0.00 99 1019.9
20260902122514 21 215 0.0 0.0 0.00 0.00 0.00 99 1020.2
20260902122010 21 215 0.0 0.0 0.00 0.00 0.00 99 1020.2
20260902121505 21 215 0.0 0.0 0.00 0.00 0.00 99 1020.2
20260902121000 21 215 0.0 0.0 0.00 0.00 0.00 99 1020.1
20260902120457 21 214 0.0 0.0 0.00 0.00 0.00 99 1020.0
20260902115956 20 215 0.0 0.0 0.00 0.00 0.00 99 1020.1
20260902115452 20 214 0.0 0.0 0.00 0.00 0.00 99 1020.1
20260902114949 20 215 0.0 0.0 0.00 0.00 0.00 99 1019.9
20260902114444 20 215 0.0 0.0 0.00 0.00 0.00 99 1020.0
20260902113938 20 214 0.0 0.0 0.00 0.00 0.00 99 1020.1
20260902113434 20 214 0.0 0.0 0.00 0.00 0.00 99 1019.9
20260902112933 20 214 0.0 0.0 0.00 0.00 0.00 99 1020.0
20260902112429 20 214 0.0 0.0 0.00 0.00 0.00 99 1020.0
20260902111925 20 214 0.0 0.0 0.00 0.00 0.00 99 1019.9
20260902111422 20 215 0.0 0.0 0.00 0.00 0.00 99 1019.8
20260902110918 20 214 0.0 0.0 0.00 0.00 0.00 99 1020.0
20260902110413 20 214 0.0 0.0 0.00 0.00 0.00 99 1020.0
20260902105913 20 214 0.0 0.0 0.00 0.00 0.00 99 1019.8
20260902105408 20 214 0.0 0.0 0.00 0.00 0.00 99 1019.8
20260902104903 20 214 0.0 0.0 0.00 0.00 0.00 99 1019.9
20260902104359 20 214 0.0 0.0 0.00 0.00 0.00 99 1020.0
20260902103853 20 214 0.0 0.0 0.00 0.00 0.00 99 1019.9
20260902103348 20 214 0.0 0.0 0.00 0.00 0.00 99 1020.1
20260902102843 20 215 0.0 0.0 0.00 0.00 0.00 99 1020.1
20260902102341 20 214 0.0 0.0 0.00 0.00 0.00 99 1020.2
20260902101836 20 214 0.0 0.0 0.00 0.00 0.00 99 1020.0
20260902101330 20 214 0.0 0.0 0.00 0.00 0.00 99 1019.9
20260902100825 20 214 0.0 0.0 0.00 0.00 0.00 99 1019.9
20260902100324 20 214 0.0 0.0 0.00 0.00 0.00 99 1020.0
20260902095820 20 214 0.0 0.0 0.00 0.00 0.00 99 1020.0
20260902095319 20 214 0.0 0.0 0.00 0.00 0.00 99 1019.8
20260902094814 20 215 0.0 0.0 0.00 0.00 0.00 99 1020.0
20260902094310 20 214 0.0 0.0 0.00 0.00 0.00 99 1019.8
20260902093809 20 214 0.0 0.0 0.00 0.00 0.00 99 1019.9
20260902093304 20 214 0.0 0.0 0.00 0.00 0.00 99 1020.0
20260902092804 20 214 0.0 0.0 0.00 0.00 0.00 99 1019.8
20260902092259 20 215 0.0 0.0 0.00 0.00 0.00 99 1019.9
20260902091758 20 214 0.0 0.0 0.00 0.00 0.00 99 1019.8
20260902091255 20 214 0.0 0.0 0.00 0.00 0.00 99 1019.7
20260902090746 20 214 0.0 0.0 0.00 0.00 0.00 99 1019.8
20260902090245 20 214 0.0 0.0 0.00 0.00 0.00 99 1019.4
20260902085745 20 214 0.0 0.0 0.00 0.00 0.00 99 1019.6
20260902085240 20 214 0.0 0.0 0.00 0.00 0.00 99 1019.6
20260902084736 20 214 0.0 0.0 0.00 0.00 0.00 99 1019.6
20260902084232 20 214 0.0 0.0 0.00 0.00 0.00 99 1019.5
20260902083731 20 214 0.0 0.0 0.00 0.00 0.00 99 1019.7
20260902083226 20 214 0.0 0.0 0.00 0.00 0.00 99 1019.5
20260902082721 20 214 0.0 0.0 0.00 0.00 0.00 99 1019.5
20260902082218 20 214 0.0 0.0 0.00 0.00 0.00 99 1019.3
20260902081714 20 214 0.0 0.0 0.00 0.00 0.00 99 1019.2
20260902081215 20 214 0.0 0.0 0.00 0.00 0.00 99 1019.4
20260902080709 20 214 0.0 0.0 0.00 0.00 0.00 99 1019.5
20260902080206 20 214 0.0 0.0 0.00 0.00 0.00 99 1019.4
20260902075701 20 214 0.0 0.0 0.00 0.00 0.00 99 1019.3
20260902075156 20 214 0.0 0.0 0.00 0.00 0.00 99 1019.3
20260902074656 20 214 0.0 0.0 0.00 0.00 0.00 99 1019.4
20260902074151 20 214 0.0 0.0 0.00 0.00 0.00 99 1019.4
20260902073647 20 214 0.0 0.0 0.00 0.00 0.00 99 1019.4
20260902073143 20 214 0.0 0.0 0.00 0.00 0.00 99 1019.5
20260902072639 20 214 0.0 0.0 0.00 0.00 0.00 99 1019.4
20260902072135 21 214 0.0 0.0 0.00 0.00 0.00 99 1019.5
20260902071630 20 214 0.0 0.0 0.00 0.00 0.00 99 1019.4
20260902071126 20 214 0.0 0.0 0.00 0.00 0.00 99 1019.4
20260902070621 21 214 0.0 0.0 0.00 0.00 0.00 99 1019.4
20260902070116 21 214 0.0 0.0 0.00 0.00 0.00 99 1019.3
20260902065615 21 214 0.0 0.0 0.00 0.00 0.00 99 1019.2
20260902065111 21 214 0.0 0.0 0.00 0.00 0.00 99 1019.2
20260902064607 21 214 0.0 0.0 0.00 0.00 0.00 99 1019.3
20260902064102 21 214 0.0 0.0 0.00 0.00 0.00 99 1019.3
20260902063601 21 214 0.0 0.0 0.00 0.00 0.00 99 1019.3
20260902063056 21 215 0.0 0.0 0.00 0.00 0.00 99 1019.4
20260902062556 21 215 0.0 0.0 0.00 0.00 0.00 99 1019.4
20260902062052 21 214 0.0 0.0 0.00 0.00 0.00 99 1019.3
20260902061551 21 214 0.0 0.0 0.00 0.00 0.00 99 1019.3
20260902061047 21 215 0.0 0.0 0.00 0.00 0.00 99 1019.4
20260902060543 21 214 0.0 0.0 0.00 0.00 0.00 99 1019.2
20260902060039 21 215 0.0 0.0 0.00 0.00 0.00 99 1019.4
20260902055535 21 215 0.0 0.0 0.00 0.00 0.00 99 1019.2
20260902055030 21 215 0.0 0.0 0.00 0.00 0.00 99 1019.5
20260902054525 21 215 0.0 0.0 0.00 0.00 0.00 99 1019.3
20260902054021 21 215 0.0 0.0 0.00 0.00 0.00 99 1019.2
20260902053516 21 215 0.0 0.0 0.00 0.00 0.00 99 1019.2
20260902053015 21 215 0.0 0.0 0.00 0.00 0.00 99 1019.4
20260902052510 21 215 0.0 0.0 0.00 0.00 0.00 99 1019.1
20260902052005 21 215 0.0 0.0 0.00 0.00 0.00 99 1019.2
20260902051500 21 215 0.0 0.0 0.00 0.00 0.00 99 1019.1
20260902050958 21 215 0.0 0.0 0.00 0.00 0.00 99 1019.1
20260902050453 21 215 0.0 0.0 0.00 0.00 0.00 99 1018.9
20260902045948 21 215 0.0 0.0 0.00 0.00 0.00 99 1018.8
20260902045444 21 215 0.0 0.0 0.00 0.00 0.00 99 1018.8
20260902044940 21 215 0.0 0.0 0.00 0.00 0.00 99 1018.7
20260902044435 21 215 0.0 0.0 0.00 0.00 0.00 99 1018.7
20260902043930 21 215 0.0 0.0 0.00 0.00 0.00 99 1018.7
20260902043425 22 215 0.0 0.0 0.00 0.00 0.00 99 1018.7
20260902042920 22 215 0.0 0.0 0.00 0.00 0.00 99 1018.8
20260902042419 22 215 0.0 0.0 0.00 0.00 0.00 99 1018.5
20260902041915 22 215 0.0 0.0 0.00 0.00 0.00 99 1018.7
20260902041410 22 215 0.0 0.0 0.00 0.00 0.00 99 1018.6
20260902040911 22 215 0.0 0.0 0.00 0.00 0.00 99 1018.7
20260902040404 22 215 0.0 0.0 0.00 0.00 0.00 99 1018.7
20260902035903 22 215 0.0 0.0 0.00 0.00 0.00 99 1018.9
20260902035358 22 215 0.0 0.0 0.00 0.00 0.00 99 1018.6
20260902034857 22 215 0.0 0.0 0.00 0.00 0.00 99 1018.7
20260902034353 22 215 0.0 0.0 0.00 0.00 0.00 99 1018.7
20260902033851 22 215 0.0 0.0 0.00 0.00 0.00 99 1018.7
20260902033346 22 215 0.0 0.0 0.00 0.00 0.00 99 1018.4
20260902032845 22 215 0.0 0.0 0.00 0.00 0.00 99 1018.8
20260902032344 22 215 0.0 0.0 0.00 0.00 0.00 99 1018.7
20260902031839 22 215 0.0 0.0 0.00 0.00 0.00 99 1018.4
20260902031335 22 215 0.0 0.0 0.00 0.00 0.00 99 1018.3
20260902030825 22 215 0.0 0.0 0.00 0.00 0.00 99 1018.5
20260902030319 22 215 0.0 0.0 0.00 0.00 0.00 99 1018.5
20260902025818 22 215 0.0 0.0 0.00 0.00 0.00 99 1018.8
20260902025314 22 215 0.0 0.0 0.00 0.00 0.00 99 1018.4
20260902024809 22 215 0.0 0.0 0.00 0.00 0.00 99 1018.6
20260902024304 22 215 0.0 0.0 0.00 0.00 0.00 99 1018.5
20260902023759 23 215 0.0 0.0 0.00 0.00 0.00 99 1018.6
20260902023255 22 215 0.0 0.0 0.00 0.00 0.00 99 1018.5
20260902022754 23 215 0.0 0.0 0.00 0.00 0.00 99 1018.7
20260902022250 23 215 0.0 0.0 0.00 0.00 0.00 99 1018.6
20260902021745 23 215 0.0 0.0 0.00 0.00 0.00 99 1018.6
20260902021244 23 215 0.0 0.0 0.00 0.00 0.00 99 1018.7
20260902020741 23 215 0.0 0.0 0.00 0.00 0.00 99 1018.5
20260902020237 23 215 0.0 0.0 0.00 0.00 0.00 99 1018.5
20260902015732 23 215 0.0 0.0 0.00 0.00 0.00 99 1018.6
20260902015228 23 215 0.0 0.0 0.00 0.00 0.00 99 1018.7
20260902014723 23 215 0.0 0.0 0.00 0.00 0.00 99 1018.6
20260902014220 23 215 0.0 0.0 0.00 0.00 0.00 99 1018.4
20260902013718 23 215 0.0 0.0 0.00 0.00 0.00 99 1018.5
20260902013214 23 215 0.0 0.0 0.00 0.00 0.00 99 1018.3
20260902012709 23 215 0.0 0.0 0.00 0.00 0.00 99 1018.6
20260902012205 23 215 0.0 0.0 0.00 0.00 0.00 99 1018.6
20260902011700 23 215 0.0 0.0 0.00 0.00 0.00 99 1018.4
20260902011154 23 215 0.0 0.0 0.00 0.00 0.00 99 1018.5
20260902010654 23 215 0.0 0.0 0.00 0.00 0.00 99 1018.4
20260902010150 23 215 0.0 0.0 0.00 0.00 0.00 99 1018.5
20260902005648 24 215 0.0 0.0 0.00 0.00 0.00 99 1018.4
20260902005143 24 215 0.0 0.0 0.00 0.00 0.00 99 1018.3
20260902004643 24 215 0.0 0.0 0.00 0.00 0.00 99 1018.4
20260902004138 24 215 0.0 0.0 0.00 0.00 0.00 99 1018.4
20260902003634 24 215 0.0 0.0 0.00 0.00 0.00 99 1018.3
20260902003129 25 215 0.0 0.0 0.00 0.00 0.00 99 1018.4
20260902002624 25 215 0.0 0.0 0.00 0.00 0.00 99 1018.3
20260902002119 25 215 0.0 0.0 0.00 0.00 0.00 98 1018.3
20260902001614 25 215 0.0 0.0 0.00 0.00 0.00 98 1018.3
20260902001109 25 215 0.0 0.0 0.00 0.00 0.00 98 1018.3
20260902000605 25 215 0.0 0.0 0.00 0.00 0.00 98 1018.2
20260902000100 25 215 0.0 0.0 0.00 0.00 0.00 98 1018.3
20260901235559 25 215 0.0 0.0 0.00 0.00 0.00 97 1018.2
20260901235055 26 215 0.0 0.0 0.00 0.00 0.00 97 1018.1
20260901234553 26 215 0.0 0.0 0.00 0.00 0.00 96 1018.2
20260901234049 26 215 0.0 0.0 0.00 0.00 0.00 95 1018.3
20260901233548 26 215 0.0 0.0 0.00 0.00 0.00 95 1018.4
20260901233044 26 215 0.0 0.0 0.00 0.00 0.00 95 1018.2
20260901232539 26 215 0.0 0.0 0.00 0.00 0.00 94 1018.4
20260901232034 27 215 0.0 0.0 0.00 0.00 0.00 94 1018.5
20260901231531 27 215 0.0 0.0 0.00 0.00 0.00 93 1018.5
20260901231027 27 215 0.0 0.0 0.00 0.00 0.00 92 1018.5
20260901230522 27 215 0.0 0.0 0.00 0.00 0.00 91 1018.4
20260901230017 28 215 0.0 0.0 0.00 0.00 0.00 90 1018.4
20260901225512 28 215 0.0 0.0 0.00 0.00 0.00 90 1018.4
20260901225012 28 215 0.0 0.0 0.00 0.00 0.00 90 1018.4
20260901224508 28 215 0.0 0.0 0.00 0.00 0.00 88 1018.3
20260901224004 29 215 0.0 0.0 0.00 0.00 0.00 85 1018.3
20260901223500 30 215 0.0 0.0 0.00 0.00 0.00 84 1018.2
20260901222955 30 215 0.0 0.0 0.00 0.00 0.00 83 1018.5
20260901222451 30 216 0.0 0.0 0.00 0.00 0.00 81 1018.4
20260901221947 30 216 0.0 0.0 0.00 0.00 0.00 81 1018.0
20260901221443 30 216 0.0 0.0 0.00 0.00 0.00 83 1018.3
20260901220942 31 252 0.0 0.0 0.00 0.00 0.00 78 1018.2
20260901220442 31 252 0.0 0.0 0.00 0.00 0.00 77 1018.0
20260901215940 31 253 0.0 0.0 0.00 0.00 0.00 77 1017.9
20260901215439 31 253 0.0 0.0 0.00 0.00 0.00 75 1017.7
20260901214933 30 252 0.0 0.0 0.00 0.00 0.00 80 1017.8
20260901214431 30 253 0.0 0.0 0.00 0.00 0.00 82 1017.8
20260901213926 29 252 0.0 0.0 0.00 0.00 0.00 84 1017.5
20260901213421 29 252 0.0 0.0 0.00 0.00 0.00 87 1017.5
20260901212920 29 252 0.0 0.0 0.00 0.00 0.00 85 1017.7
20260901212416 29 252 0.0 0.0 0.00 0.00 0.00 87 1017.9
20260901211913 29 253 0.0 0.0 0.00 0.00 0.00 86 1017.7
20260901211408 29 253 0.0 0.0 0.00 0.00 0.00 85 1017.7
20260901210903 29 253 0.0 0.0 0.00 0.00 0.00 84 1017.7
20260901210358 29 253 0.0 0.0 0.00 0.00 0.00 83 1017.8
20260901205854 28 253 0.0 0.0 0.00 0.00 0.00 83 1017.8
20260901205349 28 253 0.0 0.0 0.00 0.00 0.00 84 1018.0
20260901204844 28 254 0.0 0.0 0.00 0.00 0.00 83 1017.9
20260901204341 29 253 0.0 0.0 0.00 0.00 0.00 84 1018.1
20260901203841 29 253 0.0 0.0 0.00 0.00 0.00 83 1018.1
20260901203335 29 253 0.0 0.0 0.00 0.00 0.00 84 1018.4
20260901202830 30 254 0.0 0.0 0.00 0.00 0.00 82 1018.3
20260901202325 30 254 0.0 0.0 0.00 0.00 0.00 78 1018.3
20260901201821 30 211 0.0 0.0 0.00 0.00 0.00 79 1018.3
20260901201320 30 265 0.0 0.0 0.00 0.00 0.00 75 1018.2
20260901200820 30 229 0.0 0.0 0.00 0.00 0.00 76 1018.7
20260901200315 30 249 0.0 0.0 0.00 0.00 0.00 74 1018.7
20260901195814 30 297 0.0 0.0 0.00 0.00 0.00 74 1018.6
20260901195307 30 7 0.0 0.0 0.00 0.00 0.00 75 1018.7
20260901194802 30 252 0.0 0.0 0.00 0.00 0.00 75 1019.1
20260901194257 30 339 0.0 0.0 0.00 0.00 0.00 76 1019.3
20260901193754 30 282 0.0 0.0 0.00 0.00 0.00 75 1019.5
20260901193252 30 248 0.0 0.0 0.00 0.00 0.00 75 1019.6
20260901192747 30 283 0.0 0.0 0.00 0.00 0.00 77 1019.5
20260901192243 30 269 0.0 0.0 0.00 0.00 0.00 75 1019.2
20260901191739 30 269 0.0 0.0 0.00 0.00 0.00 77 1019.2
20260901191235 30 270 0.0 0.0 0.00 0.00 0.00 77 1019.2
20260901190730 29 240 0.0 0.0 0.00 0.00 0.00 76 1019.4
20260901190229 29 240 0.0 0.0 0.00 0.00 0.00 81 1019.2
20260901185728 30 240 0.0 0.0 0.00 0.00 0.00 75 1019.1
20260901185227 30 240 0.0 0.0 0.00 0.00 0.00 76 1018.8
20260901184723 30 237 0.0 1.6 0.00 0.00 0.00 73 1018.8
20260901184218 30 245 0.0 0.0 0.00 0.00 0.00 77 1018.8
20260901183713 30 245 0.0 0.0 0.00 0.00 0.00 75 1018.9
20260901183213 30 261 0.0 0.0 0.00 0.00 0.00 77 1019.1
20260901182704 30 232 0.0 0.0 0.00 0.00 0.00 74 1019.3
20260901182202 30 261 0.0 0.0 0.00 0.00 0.00 72 1019.5
20260901181657 30 249 0.0 0.0 0.00 0.00 0.00 75 1019.5
20260901181151 30 243 0.0 0.0 0.00 0.00 0.00 73 1019.8
20260901180645 30 297 0.0 0.0 0.00 0.00 0.00 74 1020.1
20260901180140 30 286 0.0 0.0 0.00 0.00 0.00 70 1020.0
20260901175639 30 260 0.0 0.0 0.00 0.00 0.00 71 1020.4
20260901175138 30 297 0.0 0.0 0.00 0.00 0.00 72 1020.1
20260901174634 31 252 0.0 0.0 0.00 0.00 0.00 70 1020.3
20260901174130 31 310 0.0 1.6 0.00 0.00 0.00 71 1020.5
20260901173626 31 299 0.0 0.0 0.00 0.00 0.00 69 1020.4
20260901173121 31 300 0.0 0.0 0.00 0.00 0.00 72 1020.5
20260901172617 30 249 0.0 1.6 0.00 0.00 0.00 72 1020.4
20260901172114 30 250 0.0 1.6 0.00 0.00 0.00 71 1020.6
20260901171614 31 308 0.0 0.0 0.00 0.00 0.00 72 1020.5
20260901171108 31 294 0.0 0.0 0.00 0.00 0.00 72 1020.6
20260901170606 31 254 0.0 0.0 0.00 0.00 0.00 72 1020.6
20260901165601 30 250 0.0 1.6 0.00 0.00 0.00 73 1020.4
20260901165056 30 289 0.0 0.0 0.00 0.00 0.00 74 1020.3
20260901164552 30 246 0.0 1.6 0.00 0.00 0.00 73 1020.4
20260901164047 30 225 0.0 0.0 0.00 0.00 0.00 74 1020.4